Regional Weather Roundup
Issued by NWS

Home | Current Version | Previous Version | Text Only | Print | Product List | Glossary Off
Versions: 1 2 3 4 5 6 7 8 9 10 11 12 13 14 15 16 17 18 19 20 21 22 23 24 25 26 27 28 29 30 31 32 33 34 35 36 37 38 39 40 41 42 43 44 45 46 47 48 49 50

000
ASUS45 KTFX 291310
RWRMT
MONTANA REGIONAL WEATHER ROUNDUP
NATIONAL WEATHER SERVICE GREAT FALLS MT
700 AM MDT SUN MAY 29 2016

NOTE: "FAIR" INDICATES FEW OR NO CLOUDS BELOW 12000 FEET WITH NO
SIGNIFICANT WEATHER AND/OR OBSTRUCTIONS TO VISIBILITY.

MTZ001>007-043-291400-
WEST OF THE DIVIDE

CITY           SKY/WX    TMP DP  RH WIND       PRES   REMARKS
KALISPELL      PTSUNNY   39  39 100 CALM      30.04S
MISSOULA       MOSUNNY   40  36  86 CALM      30.10R
BUTTE          SUNNY     34  30  85 CALM      30.13S
MULLAN PASS    PTCLDY    41  32  70 S3        30.06S
ANACONDA         N/A     41  32  70 S7        30.11S
DEER LODGE       N/A     39  36  87 CALM      30.12S
EUREKA           N/A     43  36  75 CALM      30.03R
HAMILTON         N/A     45  34  65 CALM      30.08S
LIBBY            N/A     37  36  93 CALM      30.05S
$$

MTZ008-052>055-291400-
SOUTHWEST MONTANA

CITY           SKY/WX    TMP DP  RH WIND       PRES   REMARKS
BOZEMAN        SUNNY     42  39  89 CALM      30.10S
DILLON         SUNNY     41  35  79 SW5       30.11S
W YELLOWSTONE  CLOUDY    28  28 100 CALM      30.21S
ENNIS          SUNNY     41  32  70 CALM      30.17R
$$

MTZ009-010-012-014-046-048-049-054-291400-
EAST SLOPES AND CENTRAL MONTANA

CITY           SKY/WX    TMP DP  RH WIND       PRES   REMARKS
CUT BANK       PTSUNNY   51  36  56 S5        29.99S
GREAT FALLS    MOSUNNY   50  37  61 S9        30.03S
MALMSTROM AFB  MOSUNNY   49  39  67 SW9       30.03S
HELENA         SUNNY     44  38  79 CALM      30.09R
CHOTEAU          N/A     48  34  57 CALM      30.02S
$$

MTZ011-013-016-021-045-047-050-051-291400-
NORTH CENTRAL MONTANA

CITY           SKY/WX    TMP DP  RH WIND       PRES   REMARKS
HAVRE          SUNNY     44  38  79 SW8       30.00S
LEWISTOWN      CLOUDY    43  35  73 SE6       30.06R
N BAR RANCH      N/A     43  36  75 CALM      30.08F
CHINOOK          N/A     48  37  66 CALM      30.01S
$$

MTZ017>020-022>027-061-062-291400-
NORTHEAST MONTANA

CITY           SKY/WX    TMP DP  RH WIND       PRES   REMARKS
GLASGOW        SUNNY     51  40  65 CALM      30.00S
JORDAN           N/A     43  38  82 W6        30.03S
SIDNEY         SUNNY     48  45  87 S6        30.03R
WOLF POINT     SUNNY     46  42  86 CALM      30.02S
PLENTYWOOD       N/A     52  45  76 CALM      30.00R
POPLAR           N/A     46  41  81 CALM      30.02S
$$

MTZ028>42-056>058-291400-
SOUTHCENTRAL AND SOUTHEAST MONTANA

CITY           SKY/WX    TMP DP  RH WIND       PRES   REMARKS
BAKER          SUNNY     49  42  77 CALM      30.06S
BILLINGS       MOSUNNY   47  41  80 SW10      30.07R
LIVINGSTON     SUNNY     41  36  82 NW7       30.09R
MILES CITY     SUNNY     50  44  80 S3        30.04S
FORSYTH          N/A     48  46  93 CALM      30.05R
$$

REGIONAL REPORTS...DAKOTAS

CITY           SKY/WX    TMP DP  RH WIND       PRES   REMARKS
WILLISTON      SUNNY     50  47  89 S5        30.01R
MINOT          SUNNY     58  52  80 SW5       29.96S
DICKINSON      SUNNY     52  46  80 NW8       30.03R
BEACH            N/A     54  46  76 SW8       30.08S
CROSBY           N/A     55  50  82 SW9       30.00R
WATFORD CITY     N/A     48  48 100 SW6       30.02S
BISMARCK       SUNNY     54  52  93 W3        30.02R
GRAND FORKS    CLOUDY    59  56  89 NW10      29.92R
FARGO          PTSUNNY   61  57  87 NW10      29.92R
BUFFALO SD       N/A     50  43  77 W3        30.01R
RAPID CITY     CLOUDY    54  47  77 NW7       30.09R
$$

REGIONAL REPORTS...WYOMING/IDAHO/WASHINGTON

CITY           SKY/WX    TMP DP  RH WIND       PRES   REMARKS
GILLETTE       SUNNY     53  47  79 S3        30.09S
SHERIDAN       CLOUDY    47  44  90 S3        30.08R
BUFFALO WY     SUNNY     54  40  59 SW5       30.12R
CODY           SUNNY     48  36  61 SW5       30.11R
YELLOWSTONE LA   N/A     28  25  88 CALM      30.26S
IDAHO FALLS    SUNNY     37  33  85 NW6       30.14R
SALMON         CLEAR     37  34  87 CALM      30.12R
BOISE          CLEAR     52  34  50 SE12      30.03R
SPOKANE        MOCLDY    49  40  71 CALM      29.98S
$$

REGIONAL REPORTS...ALBERTA

CITY           SKY/WX    TMP DP  RH WIND       PRES   REMARKS
EDMONTON       SUNNY     46  41  81 E3        29.84S
CALGARY        PTSUNNY   50  32  50 VRB2      29.87S
LETHBRIDGE     PTSUNNY   50  36  57 SW20      29.91F
MEDICINE HAT   MOSUNNY   46  37  71 SW9       29.92F
WATERTON GATE    N/A     48  32  53 SW12G18     N/A
MILK RIVER       N/A     46  36  66 S5          N/A
$$

REGIONAL REPORTS...SASKATCHEWAN

CITY           SKY/WX    TMP DP  RH WIND       PRES   REMARKS
SWIFT CURRENT  SUNNY     50  39  66 SW12      29.93S
REGINA         SUNNY     50  48  93 SW5       29.94R
SASKATOON      PTSUNNY   48  48 100 SW6       29.90S
CYPRESS HILLS    N/A     46  28  49 SW6         N/A
VAL MARIE        N/A     43  39  87 SW1         N/A
ROCKGLEN         N/A     48  41  76 W8          N/A
ASSINIBOIA       N/A     45  45 100 E1          N/A
$$



USA.gov is the U.S. government's official web portal to all federal, state and local government web resources and services.